Regional Weather Roundup
Issued by NWS Sterling, VA

Home | Current Version | Previous Version | Text Only | Print | Product List | Glossary On
Versions: 1 2 3 4 5 6 7 8 9 10 11 12 13 14 15 16 17 18 19 20 21 22 23 24 25 26 27 28 29 30 31 32 33 34 35 36 37 38 39 40 41 42 43 44 45 46 47 48 49 50
000
ASUS41 KLWX 242310
RWRLWX

REGIONAL WEATHER ROUNDUP
NATIONAL WEATHER SERVICE BALTIMORE MD/WASHINGTON DC
600 PM EST FRI FEB 24 2017

Note: "FAIR" indicates few or no clouds below 12,000 feet
with no significant weather and/or obstructions to visibility.
 TC=TEMPERATURE CELSIUS

 * =Non NWS site. Station does not report precipitation (e.g. rain,
    snow, etc.), thunder, or fog.

DCZ001-MDZ009-015-VAZ040>042-051-053>054-250000-
WASHINGTON METRO

CITY           SKY/WX    TMP DP  RH WIND       PRES   REMARKS
WASHINGTON NAT PTCLDY    67  53  61 S12       29.81S
DULLES         PTCLDY    71  50  47 S13G23    29.79S
ANDREWS AFB    CLEAR     69  54  59 SE12      29.81S
FT BELVOIR     CLEAR     69  52  53 SE9       29.80S
QUANTICO       CLEAR     60  51  72 SW8       29.81F
COLLEGE PARK*  CLEAR     70  50  49 S6        29.81S
LEESBURG*      CLEAR     73  54  49 MISG      29.79S
MANASSAS*        N/A     70  52  52 S10       29.79F
GAITHERSBURG*  CLEAR     70  48  46 SE12G20   29.84S

$$

MDZ006>007-011-014-250000-
BALTIMORE METRO

CITY           SKY/WX    TMP DP  RH WIND       PRES   REMARKS
BWI AIRPORT    PTCLDY    67  55  65 SE13G23   29.81S
MD SCIENCE CTR   N/A     68  53  58 MISG      29.82S
MARTIN STATE   CLEAR     63  55  77 SE12      29.84F
ANNAPOLIS      CLEAR     63  55  75 S13       29.82F
FORT MEADE*    CLEAR     64  54  68 SE8G16    29.84S

$$

MDZ012-015-019>023-250000-
MARYLAND EASTERN SHORE

CITY           SKY/WX    TMP DP  RH WIND       PRES   REMARKS
OCEAN CITY     CLOUDY    55  53  93 VRB3      29.90F
SALISBURY      PTCLDY    64  60  87 SE7       29.88S
BAY BRIDGE AP* CLEAR     63  55  77 SE14      29.83F
CAMBRIDGE*     CLEAR     66  59  77 S9G17     29.86S
EASTON*        PTCLDY    68  55  64 S12G18    29.88F

$$

MDZ017>025-250000-
SOUTHERN MARYLAND

CITY           SKY/WX    TMP DP  RH WIND       PRES   REMARKS
PATUXENT RIVER PTCLDY    63  59  87 S12       29.85F
ST INIGOES     CLEAR     64  58  80 SE9       29.84F
LEONARDTOWN*   CLEAR     64  55  72 SE12G17   29.86F

$$

MDZ003>005-250000-
NORTH CENTRAL MARYLAND

CITY           SKY/WX    TMP DP  RH WIND       PRES   REMARKS
FREDERICK*     CLEAR     72  54  53 S12G20    29.80S
HAGERSTOWN APT CLEAR     74  51  44 S15       29.75S
WESTMINSTER*   CLEAR     68  55  64 SE9G16    29.80S

$$

MDZ501>502-250000-
WESTERN MARYLAND

CITY           SKY/WX    TMP DP  RH WIND       PRES   REMARKS
OAKLAND*       CLOUDY    63  41  45 SE15G21   29.75F
CUMBERLAND*    CLEAR     73  46  38 S12G17    29.74R

$$

VAZ025>031-250000-
SHENANDOAH VALLEY

CITY           SKY/WX    TMP DP  RH WIND       PRES   REMARKS
WINCHESTER*    CLEAR     68  48  49 S13       29.75F
FRONT ROYAL*   CLEAR     70  50  49 S9G16     29.75S
LURAY*         CLEAR     70  52  52 S7        29.77S
NEW MARKET*    CLEAR     68  48  48 S7        29.76S
STAUNTON*      CLEAR     67  50  53 S10       29.81S
WAYNESBORO*    CLEAR     67  49  51 S6G18     29.81S

$$

WVZ021-048>050-054>055-250000-
EASTERN WEST VIRGINIA PANHANDLE

CITY           SKY/WX    TMP DP  RH WIND       PRES   REMARKS
MARTINSBURG    CLEAR     71  50  47 S12G21    29.74S
PETERSBURG*    CLEAR     72  50  45 SE8       29.73S

$$

VAZ036>039-050-250000-
CENTRAL FOOTHILLS

CITY           SKY/WX    TMP DP  RH WIND       PRES   REMARKS
CHARLOTTESVILL PTCLDY    71  50  47 S12       29.79S
CULPEPER*      CLEAR     72  52  49 S7        29.80S
ORANGE*        CLEAR     70  50  49 SE6       29.81S
GORDONSVILLE*  CLEAR     71  52  52 S7        29.80S
WARRENTON*     CLEAR     72  46  40 SE6       29.79S

$$

VAZ055>057-250000-
NORTH AND CENTRAL PIEDMONT

CITY           SKY/WX    TMP DP  RH WIND       PRES   REMARKS
FREDERICKSBRG* CLEAR     72  54  53 S7        29.81R
STAFFORD*      CLEAR     70  52  53 S6        29.85S

$$

NCZ024-NYZ072-PAZ021-071-VAZ022-071-250000-
OTHER REGIONAL OBSERVATIONS

CITY           SKY/WX    TMP DP  RH WIND       PRES   REMARKS
NEW YORK CITY  PTCLDY    64  52  64 S10G17    29.88S
PHILADELPHIA   PTCLDY    67  54  63 S14       29.85F
PITTSBURGH     MOCLDY    74  47  38 S10       29.61F
ROANOKE        PTCLDY    71  50  47 S15G22    29.81S
RICHMOND       PTCLDY    71  56  58 S8        29.82F
RALEIGH        PTCLDY    74  52  46 S5        29.83S

$$

ANZ530>537-250000-
MARINE OBSERVATIONS

STATION/POSITION TIME  TEMP    WIND        PRES
                       AIR SEA DIR/SP/G
                 (UTC) (F)     (DEG/KT/KT) (MB)
THOMAS PT LIGHT  2300   53 45  170/ 14/ 14   N/A
BALT KEY BRIDGE  2248   65     160/ 14/ 16 1009.6F
COVE POINT       2248   52     190/ 13/ 16 1011.4F
LEWISETTA        2248   64     160/ 12/ 14 1010.6F
SOLOMONS ISLAND  2248   58     140/ 12/ 14   N/A
PINEY POINT      2242          160/ 13/ 14   N/A

$$




USA.gov is the U.S. government's official web portal to all federal, state and local government web resources and services.